Location: Shenandoah County Park
(38.9356°N, 78.4524°W)
Time: 14:52:38
(UTC-05:00)

Vanguard 2 Rocket - Pass Details

Date: 04 December 2023
Orbit: 555 x 3309 km, 32.9° (Epoch: 03 March)

Event Time Altitude Azimuth Distance (km) Brightness Sun altitude
Rises 17:48:54 0° 269° (W) 7,039 13.0 -11.0°
Reaches altitude 10° 17:53:25 10° 267° (W) 6,165 12.4 -11.8°
Maximum altitude 18:13:37 70° 190° (S) 3,246 9.7 -15.6°
Enters shadow 18:28:48 12° 111° (ESE) 4,855 10.1 -18.4°
Drops below altitude 10° 18:29:22 10° 110° (ESE) 4,973 - -18.5°
Sets 18:32:35 0° 108° (ESE) 5,677 - -19.1°
